Showing default

COSMOS 2058, 20465

Orbit data source: Space-Track

COSMOS 2058, 20465 is a payload satellite owned by GRU (CIS) in LEO that was launched on Tue, 30 Jan 1990 UTC via a TSIKLON-3 launch vehicle from the Plesetsk Missile And Space Complex (PKMTR). Payload-class satellites include a variety of spacecraft equipped with specific instruments for various scientific and technological missions. These include communications satellites like Starlink; space stations such as the ISS; scientific satellites like the Hubble; Earth observation satellites from companies like Planet Labs, Umbra, and HawkEye 360; GPS; miniature CubeSats for education and research; and military/defense satellites.

Loading next visibility...
Identifier
20465, 1990-010A
Orbit
LEO
Country
Flag of CISCIS
Related business
Manufacturer
Yuzhnoe
Mission
Defense Sigint
Bus & Motor
TSELINA-D, Unknown motor
Mass
1,750 kg wet, 1,750 kg dry
Launch date (UTC)
1990-01-30 (36 years ago)
Launch vehicle
TSIKLON-3
Launch site
Plesetsk Missile And Space Complex (PKMTR)
Object type
Payload
Rocket body
Debris
Shape & HBR
Cyl + 1 Ant, 6.5 m
Radar Cross Section
4.694 m², Large (>1 m²)

Expand to show TLE details & history
Last TLE update: 6 hours ago

TLE from 6 hours ago
0 COSMOS 2058
1 20465U 90010A   26163.83381530  .00003874  00000-0  22394-3 0  9991
2 20465  82.4664 313.6481 0009772  16.3145 343.8398 15.11984150956610
Epoch: 2026-06-12T20:00Z
TLE epoch observation values (Epoch: 2026-06-12T20:00:41.641Z)
Latitude
-0.00005°
Longitude
112.31701°
Altitude
526.74 km
Speed
7.603 km/s
True Right ascension
20h 54m 35s
True Declination
0° 00' 00"
Sunlit
Object was in full shadow at epoch
Visualization orbit readout
Latitude
Unknown
Longitude
Unknown
Altitude
Unknown
Speed
Unknown
Apparent Right ascension
Unknown
Apparent Declination
Unknown
Sunlit
N/A
Visualization observer readout
Local Sidereal Time
12:45:47
Azimuth
Unknown
Elevation
Unknown
Doppler factor
Unknown
Orbital elements
Apogee altitude
533.879 km
Perigee altitude
520.384 km
Semi-major axis
6,905.269 km
Eccentricity
0.00098
Inclination
82.4664°
RAAN
313.6481°
Arg. of periapsis
16.3145°
True anomaly
343.8086°
Mean anomaly
343.8398°
Eccentric anomaly
343.8242°
Mean motion
3.78244 °/min
Orbital period
95.18 mins
BSTAR
0.00022394
Loading maneuver chart data...
Computing Atmospheric mass density...
Loading historical data...
Loading historical data...
Loading historical data...
Loading historical data...
Loading historical data...
Loading historical data...
Loading historical data...
Other satellites on launch #10 in the year 1990 (1990-01-30 UTC)

Documentation

Showing up to 5 results
|